Location: Home
(42.5358°N, 72.7383°W)
Time: 02:56:31
(UTC-05:00)

Vanguard 2 - Pass Details

Date: 07 December 2021
Orbit: 553 x 2936 km, 32.9° (Epoch: 19 January)

Event Time Altitude Azimuth Distance (km) Brightness Sun altitude
Rises 13:52:29 0° 250° (WSW) 2,839 11.3 18.2°
Reaches altitude 10° 13:54:41 10° 238° (WSW) 2,060 11.1 18.0°
Maximum altitude 13:58:47 30° 176° (S) 1,395 9.9 17.6°
Drops below altitude 10° 14:04:31 10° 117° (ESE) 2,938 10.5 17.0°
Sets 14:08:18 0° 109° (ESE) 4,307 11.2 16.6°
